#timestamp,LO_Frequency,Hit 
1499691615.3,286046965.5,N
1499691635.2,286046967.3,N
1499691655.9,286046966.7,N
1499691675.7,286046966.5,N
1499691695.6,286046970.8,N
1499691715.4,286046970.8,N
1499691735.2,286046967.7,N
1499691755.1,286046967.7,N
1499691756.0,286046967.7,N
1499691775.8,286046970.8,N
1499691795.7,286046968.4,N
1499691815.5,286046969.8,N
1499691835.3,286046972.3,N
1499691855.2,286046971.5,N
1499691875.0,286046970.9,N
1499691875.9,286046970.9,N
1499691895.8,286046972.8,N
1499691915.6,286046973.8,N
1499691935.4,286046972.6,N
1499691955.3,286046972.9,N
1499691975.1,286046973.1,N
1499691976.0,286046973.1,N
1499691995.8,286046973.0,N
1499692015.7,286046974.2,N
1499692035.5,286046975.2,N
1499692055.3,286046975.0,N
1499692075.2,286046975.5,N
1499692095.0,286046973.3,N
1499692095.9,286046973.3,N
1499692115.8,286046973.6,N
1499692135.6,286046975.6,N
1499692155.4,286046972.7,N
1499692175.3,286046971.6,N
1499692195.1,286046972.1,N
1499692215.8,286046969.4,N
1499692235.7,286046969.8,N
1499692255.5,286046969.9,N
1499692275.4,286046972.2,N
1499692295.2,286046970.0,N
1499692315.0,286046970.4,N
1499692315.9,286046970.4,N
1499692335.8,286046972.4,N
1499692355.6,286046971.8,N
1499692375.4,286046974.0,N
1499692395.3,286046972.3,N
1499692415.1,286046970.3,N
1499692435.9,286046970.7,N
1499692455.7,286046970.7,N
1499692475.5,286046970.4,N
1499692495.4,286046970.5,N
1499692515.2,286046971.6,N
1499692535.0,286046969.3,N
1499692535.9,286046969.3,N
1499692555.8,286046970.1,N
1499692575.6,286046969.4,N
1499692595.5,286046969.6,N
1499692615.3,286046970.2,N
1499692635.1,286046970.2,N
1499692655.9,286046968.1,N
1499692675.7,286046970.0,N
1499692695.6,286046970.0,N
1499692715.4,286046972.1,N
1499692735.2,286046973.7,N
1499692755.1,286046973.3,N
1499692756.0,286046973.3,N
1499692775.8,286046973.7,N
1499692795.6,286046975.5,N
1499692815.5,286046974.8,N
1499692835.3,286046974.8,N
1499692855.2,286046974.3,N
1499692875.9,286046975.3,N
1499692895.7,286046975.0,N
1499692915.6,286046974.3,N
1499692935.4,286046976.5,N
1499692955.2,286046974.6,N
1499692975.1,286046976.9,N
1499692976.0,286046976.9,N
1499692995.8,286046976.4,N
1499693015.7,286046978.8,N
1499693035.5,286046978.5,N
1499693055.3,286046978.0,N
1499693075.2,286046980.4,N
1499693095.0,286046978.0,N
1499693095.9,286046978.0,N
1499693115.7,286046978.0,N
1499693135.6,286046977.7,N
1499693155.4,286046980.4,N
1499693175.3,286046977.5,N
1499693195.1,286046978.2,N
1499693196.0,286046978.2,N
1499693215.8,286046977.6,N
1499693235.7,286046978.0,N
1499693255.5,286046978.8,N
1499693275.4,286046975.0,N
1499693295.2,286046975.6,N
1499693315.0,286046973.1,N
1499693315.9,286046973.1,N
1499693335.8,286046972.8,N
1499693355.6,286046973.5,N
1499693375.4,286046973.6,N
1499693395.3,286046986.3,N
1499693415.1,286046971.0,N
1499693435.9,286046974.0,N
1499693455.7,286046972.1,N
1499693475.5,286046970.2,N
1499693495.4,286046969.6,N
1499693515.2,286046970.8,N
1499693535.0,286046969.1,N
1499693535.9,286046969.1,N
1499693555.8,286046966.3,N
1499693575.6,286046969.1,N
1499693595.5,286046968.7,N
1499693615.3,286046970.4,N
1499693635.1,286046972.3,N
1499693655.9,286046972.3,N
1499693675.7,286046973.8,N
1499693695.6,286046971.0,N
1499693715.4,286046972.8,N
1499693735.2,286046974.9,N
1499693755.1,286046975.9,N
1499693756.0,286046975.9,N
1499693775.8,286046975.8,N
1499693795.6,286046978.1,N
1499693815.5,286046986.3,N
1499693835.3,286046979.2,N
1499693855.2,286046980.0,N
1499693875.9,286046980.3,N
1499693895.7,286046977.8,N
1499693915.6,286046977.4,N
1499693935.4,286046977.4,N
1499693955.2,286046975.7,N
1499693975.1,286046978.6,N
1499693976.0,286046978.6,N
1499693995.8,286046977.3,N
1499694015.7,286046977.7,N
1499694035.5,286046977.8,N
1499694055.3,286046975.7,N
1499694075.2,286046976.2,N
1499694095.9,286046975.8,N
1499694115.7,286046976.1,N
1499694135.6,286046976.1,N
1499694155.4,286046977.0,N
1499694175.2,286046978.2,N
1499694195.1,286046978.3,N
1499694196.0,286046978.3,N
1499694215.8,286046978.8,N
1499694235.7,286046976.4,N
1499694255.5,286046974.6,N
1499694275.3,286046974.9,N
1499694295.2,286046973.3,N
1499694315.0,286046973.5,N
1499694315.9,286046973.5,N
1499694335.7,286046975.5,N
1499694355.6,286046973.0,N
1499694375.4,286046971.0,N
1499694395.3,286046969.3,N
1499694415.1,286046970.5,N
1499694416.0,286046970.5,N
1499694435.8,286046967.9,N
1499694455.7,286046967.8,N
1499694475.5,286046968.1,N
1499694495.3,286046968.1,N
1499694515.2,286046967.8,N
1499694535.0,286046969.3,N
1499694535.9,286046969.3,N
1499694555.8,286046970.5,N
1499694575.6,286046967.9,N
1499694595.4,286046968.5,N
1499694615.3,286046966.7,N
1499694635.1,286046966.2,N
1499694655.9,286046966.7,N
1499694675.7,286046966.1,N
1499694695.5,286046966.5,N
1499694715.4,286046966.9,N
1499694735.2,286046966.1,N
1499694755.0,286046967.0,N
1499694755.9,286046967.0,N
1499694775.8,286046967.1,N
1499694795.6,286046964.5,N
1499694815.4,286046967.2,N
1499694835.3,286046964.9,N
1499694855.1,286046966.9,N
1499694875.9,286046964.8,N
1499694895.7,286046967.6,N
1499694915.5,286046967.2,N
1499694935.4,286046967.4,N
1499694955.2,286046966.2,N
1499694975.0,286046967.5,N
1499694976.0,286046967.5,N
1499694995.8,286046964.5,N
1499695015.6,286046964.8,N
1499695035.5,286046965.0,N
1499695055.3,286046967.4,N
1499695075.1,286046965.2,N
1499695095.9,286046965.0,N
1499695115.7,286046964.5,N
1499695135.5,286046966.7,N
1499695155.4,286046966.3,N
1499695175.2,286046968.4,N
1499695195.1,286046966.5,N
1499695196.0,286046966.5,N
